User: anonymous   Login
Location: Caltech
(34.1382°N, 118.1253°W)
Time: 19:48:21
(UTC-07:00)
Language:

Cosmos 1833 Rocket - Orbit

View from above orbital plane
View from above orbital plane
View from above satellite
View from above satellite

Ground track
Ground track

The orbit data is extracted from the following two-line orbital elements,

1 17590U 87027B   16239.84598173 -.00000119  00000-0 -35496-4 0  9996
2 17590  71.0029  49.7736 0004377   5.8445 354.2728 14.16731332522434
Epoch (UTC): 26 August 2016 20:18:12
Eccentricity: 0.0004377
inclination: 71.0029°
perigee height: 833 km
apogee height: 839 km
right ascension of ascending node: 49.7736°
argument of perigee: 5.8445°
revolutions per day: 14.16731332
mean anomaly at epoch: 354.2728°
orbit number at epoch: 52243

The dashed part of the orbit path shows where the satellite is in the earth's shadow,  

DLR